EW0908 Weather Reports


Display with metric or nautical units.
time (UTC)temp
F
wind
direction
speed
MPH
gust
MPH
rain 1hr
in
rain 24hr
in
rain mn
in
humidity
%
barometer
mb
20180422235412 60 214 1.0 2.0 0.00 0.00 0.00 71 1014.9
20180422234912 60 170 0.0 2.0 0.00 0.00 0.00 72 1014.9
20180422234411 60 176 2.0 5.0 0.00 0.00 0.00 72 1014.9
20180422233911 60 179 1.0 2.0 0.00 0.00 0.00 71 1014.9
20180422233410 60 172 1.0 2.0 0.00 0.00 0.00 71 1014.9
20180422232908 60 154 1.0 5.0 0.00 0.00 0.00 71 1014.9
20180422232408 60 165 3.0 5.0 0.00 0.00 0.00 71 1014.9
20180422231908 60 147 1.0 8.0 0.00 0.00 0.00 71 1014.9
20180422231407 61 181 2.0 5.0 0.00 0.00 0.00 72 1015.2
20180422230906 61 173 1.0 5.0 0.00 0.00 0.00 72 1015.2
20180422230405 61 169 3.0 5.0 0.00 0.00 0.00 71 1015.2
20180422225904 61 212 1.0 5.0 0.00 0.00 0.00 71 1015.2
20180422225404 61 180 1.0 5.0 0.00 0.00 0.00 71 1015.2
20180422224903 61 129 1.0 5.0 0.00 0.00 0.00 71 1015.2
20180422224402 61 142 4.0 8.0 0.00 0.00 0.00 71 1015.2
20180422223902 61 151 3.0 5.0 0.00 0.00 0.00 71 1015.2
20180422223401 61 142 3.0 8.0 0.00 0.00 0.00 72 1015.3
20180422222901 61 165 3.0 5.0 0.00 0.00 0.00 72 1015.2
20180422222400 61 156 2.0 8.0 0.00 0.00 0.00 72 1015.4
20180422221859 61 165 4.0 8.0 0.00 0.00 0.00 71 1015.6
20180422221358 61 185 3.0 5.0 0.00 0.00 0.00 71 1015.6
20180422220857 61 165 5.0 8.0 0.00 0.00 0.00 70 1015.6
20180422220357 61 145 4.0 8.0 0.00 0.00 0.00 70 1015.6
20180422215856 61 132 4.0 8.0 0.00 0.00 0.00 71 1015.6
20180422215355 61 140 3.0 8.0 0.00 0.00 0.00 72 1015.6
20180422214855 61 135 3.0 5.0 0.00 0.00 0.00 71 1015.6
20180422214354 62 173 2.0 8.0 0.00 0.00 0.00 71 1015.6
20180422213853 62 165 2.0 5.0 0.00 0.00 0.00 71 1015.9
20180422213352 62 147 4.0 8.0 0.00 0.00 0.00 70 1015.6
20180422212852 62 145 5.0 8.0 0.00 0.00 0.00 70 1015.6
20180422212351 62 174 5.0 10.0 0.00 0.00 0.00 70 1015.6
20180422211850 62 161 6.0 8.0 0.00 0.00 0.00 69 1015.6
20180422211350 63 163 5.0 10.0 0.00 0.00 0.00 68 1015.9
20180422210901 63 152 3.0 5.0 0.00 0.00 0.00 68 1015.6
20180422210349 63 98 3.0 5.0 0.00 0.00 0.00 68 1015.9
20180422205847 63 156 3.0 10.0 0.00 0.00 0.00 67 1015.9
20180422205347 63 152 4.0 13.0 0.00 0.00 0.00 67 1015.9
20180422204846 64 134 3.0 8.0 0.00 0.00 0.00 66 1015.8
20180422204346 64 154 3.0 8.0 0.00 0.00 0.00 66 1015.9
20180422203845 64 183 3.0 8.0 0.00 0.00 0.00 65 1015.9
20180422203344 64 125 3.0 8.0 0.00 0.00 0.00 63 1015.9
20180422202843 64 136 5.0 10.0 0.00 0.00 0.00 61 1015.9
20180422202343 64 182 2.0 5.0 0.00 0.00 0.00 59 1015.9
20180422201842 64 187 0.0 5.0 0.00 0.00 0.00 60 1015.9
20180422201341 65 182 2.0 5.0 0.00 0.00 0.00 60 1015.9
20180422200840 65 143 3.0 8.0 0.00 0.00 0.00 61 1015.9
20180422200340 65 146 5.0 10.0 0.00 0.00 0.00 62 1015.9
20180422195839 66 138 6.0 10.0 0.00 0.00 0.00 62 1015.9
20180422195338 66 151 5.0 10.0 0.00 0.00 0.00 60 1015.8
20180422194837 66 140 5.0 10.0 0.00 0.00 0.00 57 1015.9
20180422194337 66 166 7.0 15.0 0.00 0.00 0.00 55 1015.9
20180422193836 66 161 7.0 17.0 0.00 0.00 0.00 51 1015.9
20180422193336 66 151 8.0 13.0 0.00 0.00 0.00 51 1015.9
20180422192834 66 175 7.0 10.0 0.00 0.00 0.00 52 1015.9
20180422192334 67 163 7.0 10.0 0.00 0.00 0.00 53 1015.9
20180422191833 67 172 5.0 10.0 0.00 0.00 0.00 52 1015.7
20180422191333 67 169 5.0 13.0 0.00 0.00 0.00 52 1015.6
20180422190832 67 159 4.0 10.0 0.00 0.00 0.00 52 1015.6
20180422190331 67 180 5.0 13.0 0.00 0.00 0.00 52 1015.6
20180422185830 67 179 5.0 10.0 0.00 0.00 0.00 51 1015.6
20180422185330 67 194 6.0 13.0 0.00 0.00 0.00 51 1015.6
20180422184829 67 149 7.0 10.0 0.00 0.00 0.00 49 1015.6
20180422184329 67 159 8.0 13.0 0.00 0.00 0.00 48 1015.6
20180422183828 68 164 3.0 8.0 0.00 0.00 0.00 49 1015.2
20180422183327 68 173 5.0 10.0 0.00 0.00 0.00 48 1015.2
20180422182826 68 160 5.0 15.0 0.00 0.00 0.00 48 1015.2
20180422182329 68 177 5.0 10.0 0.00 0.00 0.00 47 1015.2
20180422181825 68 158 6.0 10.0 0.00 0.00 0.00 47 1015.2
20180422181324 68 121 6.0 13.0 0.00 0.00 0.00 47 1015.2
20180422180824 68 191 7.0 10.0 0.00 0.00 0.00 47 1015.2
20180422180323 69 136 6.0 10.0 0.00 0.00 0.00 47 1014.9
20180422175822 69 192 6.0 13.0 0.00 0.00 0.00 47 1015.1
20180422175321 69 172 7.0 13.0 0.00 0.00 0.00 47 1015.2
20180422174820 69 149 5.0 10.0 0.00 0.00 0.00 46 1014.9
20180422174320 69 160 5.0 10.0 0.00 0.00 0.00 46 1014.9
20180422173819 70 189 4.0 15.0 0.00 0.00 0.00 46 1014.9
20180422173318 70 167 5.0 15.0 0.00 0.00 0.00 45 1014.9
20180422172818 70 153 7.0 15.0 0.00 0.00 0.00 44 1014.9
20180422172317 71 178 7.0 13.0 0.00 0.00 0.00 45 1014.6
20180422171816 71 166 6.0 10.0 0.00 0.00 0.00 45 1014.6
20180422171315 71 162 7.0 13.0 0.00 0.00 0.00 46 1014.6
20180422170815 72 173 7.0 13.0 0.00 0.00 0.00 46 1014.6
20180422170314 72 204 3.0 8.0 0.00 0.00 0.00 42 1014.6
20180422165813 73 166 6.0 10.0 0.00 0.00 0.00 39 1014.6
20180422165312 73 170 6.0 10.0 0.00 0.00 0.00 39 1014.6
20180422164812 73 158 5.0 10.0 0.00 0.00 0.00 38 1014.6
20180422164312 74 169 6.0 10.0 0.00 0.00 0.00 38 1014.6
20180422163811 74 147 6.0 17.0 0.00 0.00 0.00 38 1014.2
20180422163310 74 142 5.0 10.0 0.00 0.00 0.00 37 1014.6
20180422162809 75 175 6.0 10.0 0.00 0.00 0.00 37 1014.6
20180422162308 75 135 6.0 10.0 0.00 0.00 0.00 37 1014.6
20180422161808 76 140 9.0 13.0 0.00 0.00 0.00 37 1014.6
20180422161307 76 149 6.0 10.0 0.00 0.00 0.00 37 1014.6
20180422160806 76 132 7.0 13.0 0.00 0.00 0.00 37 1014.6
20180422160306 76 164 5.0 10.0 0.00 0.00 0.00 36 1014.6
20180422155913 76 150 8.0 13.0 0.00 0.00 0.00 36 1014.6
20180422155412 76 159 5.0 8.0 0.00 0.00 0.00 36 1014.6
20180422154912 76 160 3.0 8.0 0.00 0.00 0.00 35 1014.6
20180422154411 77 163 4.0 10.0 0.00 0.00 0.00 35 1014.6
20180422153910 77 170 8.0 13.0 0.00 0.00 0.00 36 1014.6
20180422153410 77 163 7.0 10.0 0.00 0.00 0.00 35 1014.6
20180422152908 77 174 9.0 15.0 0.00 0.00 0.00 36 1014.6
20180422152408 78 149 6.0 13.0 0.00 0.00 0.00 35 1014.9
20180422151907 78 161 8.0 13.0 0.00 0.00 0.00 35 1014.9
20180422151407 78 148 7.0 15.0 0.00 0.00 0.00 35 1014.9
20180422150906 79 159 5.0 8.0 0.00 0.00 0.00 35 1014.9
20180422150405 79 205 5.0 13.0 0.00 0.00 0.00 35 1014.9
20180422145904 79 179 4.0 13.0 0.00 0.00 0.00 33 1014.9
20180422145404 79 319 0.0 2.0 0.00 0.00 0.00 32 1014.9
20180422144903 78 50 1.0 5.0 0.00 0.00 0.00 32 1014.9
20180422144402 78 249 1.0 5.0 0.00 0.00 0.00 31 1015.2
20180422143901 77 331 0.0 0.0 0.00 0.00 0.00 31 1015.2
20180422143401 76 357 0.0 0.0 0.00 0.00 0.00 34 1014.9
20180422142900 76 339 0.0 0.0 0.00 0.00 0.00 33 1015.2
20180422142359 75 336 0.0 0.0 0.00 0.00 0.00 37 1015.2
20180422141858 75 334 0.0 2.0 0.00 0.00 0.00 38 1015.2
20180422141358 74 323 1.0 2.0 0.00 0.00 0.00 39 1015.2
20180422140857 74 342 1.0 2.0 0.00 0.00 0.00 39 1015.2
20180422140358 74 358 2.0 2.0 0.00 0.00 0.00 39 1015.2
20180422135856 73 11 1.0 5.0 0.00 0.00 0.00 41 1015.2
20180422135356 73 324 2.0 2.0 0.00 0.00 0.00 45 1015.2
20180422134855 73 21 2.0 5.0 0.00 0.00 0.00 42 1015.2
20180422134353 72 358 1.0 8.0 0.00 0.00 0.00 46 1015.6
20180422133853 72 357 5.0 8.0 0.00 0.00 0.00 45 1015.2
20180422133352 72 298 1.0 8.0 0.00 0.00 0.00 45 1015.3
20180422132851 72 17 5.0 8.0 0.00 0.00 0.00 43 1015.6
20180422132351 72 20 6.0 10.0 0.00 0.00 0.00 39 1015.6
20180422131850 72 344 3.0 10.0 0.00 0.00 0.00 45 1015.6
20180422131350 73 51 6.0 8.0 0.00 0.00 0.00 46 1015.7
20180422130848 73 35 3.0 8.0 0.00 0.00 0.00 44 1015.7
20180422130347 73 358 3.0 5.0 0.00 0.00 0.00 40 1015.9
20180422125848 73 357 1.0 5.0 0.00 0.00 0.00 46 1015.7
20180422125347 73 7 2.0 5.0 0.00 0.00 0.00 49 1015.9
20180422124846 73 53 1.0 2.0 0.00 0.00 0.00 50 1015.9
20180422124345 73 299 1.0 2.0 0.00 0.00 0.00 50 1015.9
20180422123845 73 19 0.0 2.0 0.00 0.00 0.00 51 1016.1
20180422123344 73 27 1.0 5.0 0.00 0.00 0.00 52 1015.9
20180422122843 73 316 3.0 10.0 0.00 0.00 0.00 55 1016.3
20180422122342 73 333 2.0 8.0 0.00 0.00 0.00 50 1016.1
20180422121841 73 331 1.0 2.0 0.00 0.00 0.00 49 1016.3
20180422121341 73 328 1.0 5.0 0.00 0.00 0.00 50 1016.3
20180422120840 72 7 2.0 5.0 0.00 0.00 0.00 49 1016.3
20180422120339 71 8 1.0 5.0 0.00 0.00 0.00 50 1016.3
20180422115839 70 348 1.0 5.0 0.00 0.00 0.00 49 1016.6
20180422115339 69 231 1.0 5.0 0.00 0.00 0.00 50 1016.6
20180422114837 69 14 2.0 5.0 0.00 0.00 0.00 54 1016.6
20180422114337 68 7 4.0 8.0 0.00 0.00 0.00 55 1016.6
20180422113836 68 18 5.0 8.0 0.00 0.00 0.00 56 1016.9
20180422113335 68 9 3.0 8.0 0.00 0.00 0.00 58 1016.8
20180422112835 68 298 3.0 8.0 0.00 0.00 0.00 57 1016.9
20180422112334 68 20 2.0 8.0 0.00 0.00 0.00 56 1016.9
20180422111833 68 45 2.0 8.0 0.00 0.00 0.00 61 1017.1
20180422111332 68 27 3.0 8.0 0.00 0.00 0.00 62 1016.9
20180422110832 68 334 3.0 8.0 0.00 0.00 0.00 58 1016.9
20180422110331 68 358 4.0 8.0 0.00 0.00 0.00 60 1017.3
20180422105831 68 0 3.0 5.0 0.00 0.00 0.00 56 1016.9
20180422105330 68 39 1.0 2.0 0.00 0.00 0.00 54 1017.3
20180422104829 68 324 1.0 5.0 0.00 0.00 0.00 55 1017.3
20180422104328 67 349 2.0 8.0 0.00 0.00 0.00 57 1017.3
20180422103827 67 337 3.0 8.0 0.00 0.00 0.00 58 1017.3
20180422103327 67 40 2.0 5.0 0.00 0.00 0.00 56 1017.6
20180422102826 67 16 2.0 8.0 0.00 0.00 0.00 55 1017.6
20180422102326 67 18 2.0 5.0 0.00 0.00 0.00 53 1017.6
20180422101825 67 7 2.0 5.0 0.00 0.00 0.00 52 1017.6
20180422101324 66 352 1.0 5.0 0.00 0.00 0.00 50 1017.6
20180422100823 66 12 1.0 5.0 0.00 0.00 0.00 52 1017.6
20180422100322 65 20 2.0 5.0 0.00 0.00 0.00 53 1017.6
20180422095821 65 21 4.0 8.0 0.00 0.00 0.00 54 1017.8
20180422095321 65 24 4.0 8.0 0.00 0.00 0.00 55 1017.9
20180422094820 65 353 2.0 5.0 0.00 0.00 0.00 56 1017.9
20180422094320 65 27 2.0 5.0 0.00 0.00 0.00 56 1017.9
20180422093819 65 347 3.0 8.0 0.00 0.00 0.00 55 1017.9
20180422093319 65 26 4.0 8.0 0.00 0.00 0.00 55 1017.9
20180422092818 65 37 3.0 8.0 0.00 0.00 0.00 52 1017.9
20180422092317 65 327 3.0 8.0 0.00 0.00 0.00 52 1017.9
20180422091816 65 12 3.0 5.0 0.00 0.00 0.00 50 1017.9
20180422091316 64 26 3.0 8.0 0.00 0.00 0.00 50 1017.9
20180422090815 64 19 4.0 8.0 0.00 0.00 0.00 52 1017.9
20180422090314 64 27 4.0 8.0 0.00 0.00 0.00 51 1018.3
20180422085813 64 27 3.0 5.0 0.00 0.00 0.00 51 1018.3
20180422085313 64 12 4.0 5.0 0.00 0.00 0.00 54 1018.3
20180422084812 64 357 3.0 5.0 0.00 0.00 0.00 57 1018.3
20180422084311 64 3 3.0 5.0 0.00 0.00 0.00 60 1018.3
20180422083810 64 16 3.0 5.0 0.00 0.00 0.00 59 1018.3
20180422083310 64 358 2.0 5.0 0.00 0.00 0.00 58 1018.3
20180422082809 63 22 2.0 5.0 0.00 0.00 0.00 60 1018.3
20180422082308 63 353 3.0 5.0 0.00 0.00 0.00 60 1018.3
20180422081808 63 8 2.0 5.0 0.00 0.00 0.00 59 1018.6
20180422081306 63 10 2.0 5.0 0.00 0.00 0.00 59 1018.6
20180422080806 63 27 2.0 5.0 0.00 0.00 0.00 60 1018.6
20180422080306 63 17 2.0 5.0 0.00 0.00 0.00 59 1018.6
20180422075412 63 26 2.0 5.0 0.00 0.00 0.00 55 1018.6
20180422074913 63 352 2.0 5.0 0.00 0.00 0.00 54 1018.6
20180422074411 63 10 1.0 5.0 0.00 0.00 0.00 53 1018.6
20180422073911 63 340 1.0 5.0 0.00 0.00 0.00 53 1018.6
20180422073410 62 16 2.0 5.0 0.00 0.00 0.00 54 1018.6
20180422072908 62 334 1.0 5.0 0.00 0.00 0.00 56 1018.6
20180422072408 62 41 2.0 5.0 0.00 0.00 0.00 61 1018.6
20180422071907 62 31 2.0 5.0 0.00 0.00 0.00 62 1018.6
20180422071407 62 14 2.0 5.0 0.00 0.00 0.00 62 1018.6
20180422070906 62 10 2.0 5.0 0.00 0.00 0.00 64 1018.6
20180422070405 61 44 1.0 5.0 0.00 0.00 0.00 64 1018.6
20180422065904 61 25 1.0 5.0 0.00 0.00 0.00 62 1018.6
20180422065403 61 0 1.0 5.0 0.00 0.00 0.00 63 1018.6
20180422064903 61 33 1.0 5.0 0.00 0.00 0.00 62 1018.6
20180422064403 60 62 1.0 5.0 0.00 0.00 0.00 63 1018.6
20180422063902 60 1 1.0 5.0 0.00 0.00 0.00 64 1018.6
20180422063401 60 0 3.0 5.0 0.00 0.00 0.00 65 1018.6
20180422062900 60 28 2.0 2.0 0.00 0.00 0.00 64 1018.6
20180422062400 60 351 1.0 5.0 0.00 0.00 0.00 65 1018.6
20180422061859 60 28 3.0 8.0 0.00 0.00 0.00 66 1018.5
20180422061358 60 26 3.0 5.0 0.00 0.00 0.00 63 1018.3
20180422060857 60 37 2.0 5.0 0.00 0.00 0.00 64 1018.6
20180422060357 60 13 2.0 5.0 0.00 0.00 0.00 66 1018.6
20180422055856 60 37 2.0 2.0 0.00 0.00 0.00 63 1018.6
20180422055355 61 22 1.0 2.0 0.00 0.00 0.00 65 1018.6
20180422054855 61 3 1.0 2.0 0.00 0.00 0.00 64 1018.6
20180422054353 61 326 0.0 2.0 0.00 0.00 0.00 64 1018.6
20180422053853 61 353 1.0 2.0 0.00 0.00 0.00 64 1018.6
20180422053352 61 357 1.0 2.0 0.00 0.00 0.00 62 1018.5
20180422052852 61 354 0.0 2.0 0.00 0.00 0.00 63 1018.6
20180422052351 60 349 0.0 2.0 0.00 0.00 0.00 63 1018.6
20180422051850 60 291 0.0 2.0 0.00 0.00 0.00 62 1018.6
20180422051350 59 119 0.0 2.0 0.00 0.00 0.00 63 1018.6
20180422050849 59 142 1.0 2.0 0.00 0.00 0.00 64 1018.6
20180422050348 59 215 1.0 5.0 0.00 0.00 0.00 64 1018.6
20180422045848 58 222 1.0 5.0 0.00 0.00 0.00 65 1018.6
20180422045347 58 210 1.0 2.0 0.00 0.00 0.00 64 1018.6
20180422044846 58 245 0.0 2.0 0.00 0.00 0.00 67 1018.6
20180422044345 57 293 0.0 2.0 0.00 0.00 0.00 69 1018.6
20180422043845 57 304 0.0 0.0 0.00 0.00 0.00 68 1018.6
20180422043344 56 305 0.0 0.0 0.00 0.00 0.00 70 1018.6
20180422042843 56 283 0.0 2.0 0.00 0.00 0.00 73 1018.5
20180422042343 55 294 0.0 2.0 0.00 0.00 0.00 74 1018.4
20180422041842 55 340 0.0 0.0 0.00 0.00 0.00 74 1018.6
20180422041340 55 353 0.0 0.0 0.00 0.00 0.00 75 1018.5
20180422040840 55 351 0.0 0.0 0.00 0.00 0.00 76 1018.6
20180422040340 55 350 0.0 0.0 0.00 0.00 0.00 77 1018.3
20180422035839 55 334 0.0 2.0 0.00 0.00 0.00 78 1018.3
20180422035338 55 188 0.0 2.0 0.00 0.00 0.00 77 1018.3
20180422034837 55 182 0.0 2.0 0.00 0.00 0.00 77 1018.3
20180422034337 55 173 0.0 2.0 0.00 0.00 0.00 77 1018.3
20180422033836 55 231 0.0 0.0 0.00 0.00 0.00 78 1018.3
20180422033335 55 231 0.0 2.0 0.00 0.00 0.00 78 1018.5
20180422032835 55 275 1.0 2.0 0.00 0.00 0.00 78 1018.3
20180422032334 55 291 0.0 0.0 0.00 0.00 0.00 80 1018.3
20180422031833 55 240 0.0 0.0 0.00 0.00 0.00 79 1018.3
20180422031332 55 269 0.0 2.0 0.00 0.00 0.00 79 1018.3
20180422030832 55 271 2.0 5.0 0.00 0.00 0.00 78 1018.3
20180422030331 55 284 1.0 2.0 0.00 0.00 0.00 78 1018.3
20180422025830 55 285 0.0 2.0 0.00 0.00 0.00 76 1018.3
20180422025329 55 315 0.0 2.0 0.00 0.00 0.00 74 1018.3
20180422024828 55 275 1.0 2.0 0.00 0.00 0.00 72 1018.3
20180422024328 55 234 1.0 2.0 0.00 0.00 0.00 70 1018.3
20180422023827 55 235 1.0 2.0 0.00 0.00 0.00 70 1018.3
20180422023326 55 238 1.0 2.0 0.00 0.00 0.00 71 1018.3
20180422022826 55 238 0.0 2.0 0.00 0.00 0.00 72 1018.3
20180422022325 55 290 0.0 2.0 0.00 0.00 0.00 72 1018.4
20180422021824 55 271 1.0 2.0 0.00 0.00 0.00 71 1018.4
20180422021324 55 289 1.0 2.0 0.00 0.00 0.00 69 1018.3
20180422020823 55 306 1.0 2.0 0.00 0.00 0.00 69 1018.3
20180422020322 55 282 2.0 5.0 0.00 0.00 0.00 68 1018.6
20180422015822 55 286 0.0 2.0 0.00 0.00 0.00 68 1018.6
20180422015321 55 291 1.0 2.0 0.00 0.00 0.00 69 1018.3
20180422014820 55 351 2.0 5.0 0.00 0.00 0.00 68 1018.4
20180422014319 55 284 2.0 2.0 0.00 0.00 0.00 72 1018.3
20180422013819 55 285 2.0 5.0 0.00 0.00 0.00 74 1018.6
20180422013318 55 340 1.0 2.0 0.00 0.00 0.00 75 1018.6
20180422012818 55 308 1.0 2.0 0.00 0.00 0.00 75 1018.6
20180422012317 55 301 0.0 2.0 0.00 0.00 0.00 74 1018.6
20180422011816 55 326 0.0 2.0 0.00 0.00 0.00 73 1018.6
20180422011315 55 309 1.0 2.0 0.00 0.00 0.00 73 1018.7
20180422010815 55 280 1.0 5.0 0.00 0.00 0.00 73 1019.0
20180422010314 56 303 2.0 5.0 0.00 0.00 0.00 74 1018.9
20180422005813 56 348 3.0 5.0 0.00 0.00 0.00 75 1018.6
20180422005313 56 344 2.0 5.0 0.00 0.00 0.00 75 1019.0
20180422004812 56 323 1.0 5.0 0.00 0.00 0.00 75 1019.0
20180422004311 56 318 2.0 5.0 0.00 0.00 0.00 74 1019.0
20180422003810 56 295 2.0 5.0 0.00 0.00 0.00 72 1019.0
20180422003310 56 295 2.0 5.0 0.00 0.00 0.00 68 1019.0
20180422002809 56 329 1.0 5.0 0.00 0.00 0.00 71 1019.0
20180422002308 56 340 0.0 2.0 0.00 0.00 0.00 71 1019.0
20180422001807 56 345 0.0 0.0 0.00 0.00 0.00 72 1019.0
20180422001306 56 349 0.0 0.0 0.00 0.00 0.00 71 1019.0
20180422000805 56 353 0.0 2.0 0.00 0.00 0.00 71 1019.0
20180422000305 57 222 0.0 0.0 0.00 0.00 0.00 74 1019.0
20180421235804 57 223 0.0 0.0 0.00 0.00 0.00 74 1019.0